Notices

What's New in latest Release from April 7th, 2021:

- Updated Glossary, including Speed of Maximum Gust, and Total Hourly Precipitation

- Updated national and regional climate services offices contacts and prices information

- Addition of station inventory lists for 1981-2010, 1971-2000, and 1961-1990 Normals.

If you haven't already, please take our survey and provide feedback about our website: https://eccc.sondage-survey.ca/f/LanguageSelection.aspx?s=442ca660-fcf1-47c0-95a9-59707d6fd709

Hourly Data Report for December 14, 2020

MUSKOKA
ONTARIO
Current Station Operator: NAVCAN

44°58'29.000" N
79°18'12.000" W
281.90 m
6115529
71532
YQA

Download Data

Hourly Data (December 2020)
Hourly Data Report for December 14, 2020
TIME
LST
Temp Definition
°C
Dew Point Definition
°C
Rel Hum Definition
%
Precip. Amount Definition
mm

Wind Dir Definition
10's deg

Wind Spd Definition
km/h
Visibility Definition
km
Stn Press Definition
kPa
Hmdx Definition


Wind Chill Definition


Weather Definition


00:00 -2.6 -3.3 95 LegendMM 18 11 16.1 98.19   -7 LegendNANA
01:00 -2.5 -3.5 93 LegendMM 20 8 16.1 98.13   -6 LegendNANA
02:00 -2.2 -3.6 90 LegendMM 18 9 16.1 98.10   -6 LegendNANA
03:00 -2.2 -3.6 90 LegendMM 17 8 16.1 98.06   -5 LegendNANA
04:00 -2.0 -4.0 86 LegendMM 17 8 16.1 97.98   -5 LegendNANA
05:00 -1.9 -3.9 86 LegendMM 18 9 16.1 97.91   -5 LegendNANA
06:00 -1.8 -3.9 86 LegendMM 17 8 16.1 97.87   -5 LegendNANA
07:00 -1.5 -4.0 83 LegendMM 17 9 16.1 97.79   -5 LegendNANA
08:00 -1.3 -4.0 82 LegendMM 19 13 16.1 97.77   -6 LegendNANA
09:00 -1.0 -4.2 79 LegendMM 20 11 16.1 97.75   -5 Snow
10:00 -0.8 -4.2 78 LegendMM 19 15 16.1 97.71   -5 Snow
11:00 -0.9 -3.1 85 LegendMM 20 18 16.1 97.65   -6 Snow
12:00 -1.3 -2.4 92 LegendMM 23 11 0.2 97.60   -5 Heavy Snow
13:00 -0.7 -2.0 91 244.6 26 17 4.8 97.56   -6 Snow
14:00 -1.4 -3.2 88 489.4 29 24 2.4 97.61   -8 Snow
15:00 -1.6 -3.4 88 LegendMM 28 17 3.2 97.66   -7 Snow
16:00 -2.3 -3.7 90 374.9 30 11 2.8 97.78   -6 Snow
17:00 -2.6 -6.1 77 0.0 33 13 16.1 97.89   -7 LegendNANA
18:00 -3.0 -7.4 72 0.0 32 24 16.1 97.98   -10 Snow
19:00 -3.1 -7.1 74 0.0 31 22 16.1 98.10   -9 LegendNANA
20:00 -4.1 -7.2 79 0.0 31 17 16.1 98.23   -10 LegendNANA
21:00 -4.8 -10.6 64 0.0 32 22 16.1 98.33   -12 LegendNANA
22:00 -4.9 -11.1 62 0.0 32 26 16.1 98.43   -12 Snow
23:00 -6.4 -10.8 71 0.0 33 21 16.1 98.53   -13 Snow

Notes on Data Quality.

Legend

  • E = Estimated
  • M = Missing
  • NA = Not Available*
  • [empty] = Indicates an unobserved value
Date modified: